This is the latest recevied weather packets stored in our database for station/object AG7BI. If no packets are shown the sender has not sent any weather packets the latest 10 day(s).
| Time | Temp. | Humidity | Pressure | Rain* | Wind** | Luminosity | Snow |
|---|---|---|---|---|---|---|---|
| 1777951552 | 16.11° C | 68% | 1010.3 hPa | 0 mm | - | - | - |
| 1777951252 | 16.11° C | 67% | 1010.1 hPa | 0 mm | - | - | - |
| 1777950952 | 16.67° C | 66% | 1009.9 hPa | 0 mm | - | - | - |
| 1777950652 | 16.67° C | 66% | 1009.9 hPa | 0 mm | - | - | - |
| 1777950352 | 17.22° C | 65% | 1009.7 hPa | 0 mm | - | - | - |
| 1777950052 | 17.78° C | 65% | 1009.7 hPa | 0 mm | - | - | - |
| 1777949752 | 17.78° C | 62% | 1009.6 hPa | 0 mm | - | - | - |
| 1777949452 | 17.78° C | 61% | 1009.7 hPa | 0 mm | - | - | - |
| 1777949152 | 18.33° C | 60% | 1009.7 hPa | 0 mm | - | - | - |
| 1777948852 | 18.33° C | 59% | 1009.7 hPa | 0 mm | - | - | - |
| 1777948552 | 18.89° C | 58% | 1009.7 hPa | 0 mm | - | - | - |
| 1777948252 | 18.89° C | 56% | 1009.5 hPa | 0 mm | - | - | - |
| 1777947952 | 18.89° C | 55% | 1009.4 hPa | 0 mm | - | - | - |
| 1777947652 | 18.89° C | 54% | 1009.6 hPa | 0 mm | - | - | - |
| 1777947352 | 18.89° C | 52% | 1009.6 hPa | 0 mm | - | - | - |
| 1777947052 | 19.44° C | 51% | 1009.5 hPa | 0 mm | - | - | - |
| 1777946752 | 19.44° C | 50% | 1009.6 hPa | 0 mm | - | - | - |
| 1777946452 | 19.44° C | 49% | 1009.5 hPa | 0 mm | - | - | - |
| 1777946152 | 19.44° C | 50% | 1009.6 hPa | 0 mm | - | - | - |
| 1777945852 | 20° C | 48% | 1009.6 hPa | 0 mm | - | - | - |
| 1777945552 | 20° C | 49% | 1009.6 hPa | 0 mm | - | - | - |
| 1777945252 | 20° C | 48% | 1009.8 hPa | 0 mm | - | - | - |
| 1777944952 | 20° C | 50% | 1009.7 hPa | 0 mm | - | - | - |
| 1777944652 | 20° C | 48% | 1009.8 hPa | 0 mm | - | - | - |
| 1777944352 | 20° C | 49% | 1009.7 hPa | 0 mm | - | - | - |
* Rain latest hour (hover to see other rain measurements)
** Current wind speed in m/s (hover to see current wind gust speed)